Tevel-3
1 50988U 22002E 23173.69022967 .00021456 00000-0 85248-3 0 9991
2 50988 97.4323 240.6179 0007622 203.3865 156.7027 15.25309626 79602
Tevel-8
1 50989U 22002F 23173.70921816 .00021471 00000-0 85473-3 0 9992
2 50989 97.4340 240.6965 0007704 201.8890 158.2019 15.25243684 79606
Tevel-5
1 50998U 22002Q 23173.69746677 .00022726 00000-0 88008-3 0 9991
2 50998 97.4318 241.0148 0008964 199.1892 160.9010 15.26143713 79636
Tevel-6
1 50999U 22002R 23173.69599083 .00022740 00000-0 88060-3 0 9993
2 50999 97.4317 241.0081 0008961 199.1004 160.9900 15.26143894 79632
Tevel-1
1 51013U 22002AF 23173.63459236 .00022328 00000-0 88816-3 0 9991
2 51013 97.4318 240.5048 0007589 202.9631 157.1269 15.25262513 79592
Grizu-263a
1 51025U 22002AT 23173.46327556 .00090531 00000-0 18145-2 0 9992
2 51025 97.4463 246.1604 0009020 196.2050 163.8912 15.46350870 79875
NO-116
1 51031U 22002AZ 23173.14195318 .00035736 00000-0 11186-2 0 9997
2 51031 97.4443 243.0876 0009630 201.9774 158.1056 15.32984562 79660
IRIS-A
1 51044U 22002BN 23173.73706709 .00011164 00000-0 52834-3 0 9993
2 51044 97.4337 239.1085 0007608 210.2019 149.8778 15.19498623 79506
Tevel-7
1 51062U 22002CG 23173.71014963 .00021732 00000-0 86456-3 0 9994
2 51062 97.4336 240.6704 0007671 201.5207 158.5709 15.25262858 79600
Tevel-4
1 51063U 22002CH 23173.71641564 .00021752 00000-0 86673-3 0 9991
2 51063 97.4337 240.6599 0007651 201.8293 158.2620 15.25210214 79608
Tevel-2
1 51069U 22002CP 23173.69204880 .00022221 00000-0 88257-3 0 9992
2 51069 97.4319 240.5907 0007663 203.0825 157.0070 15.25313611 79605
DELFI-PQ
1 51074U 22002CU 23173.14618933 .00042303 00000-0 11866-2 0 9990
2 51074 97.4583 245.5085 0009371 225.6191 134.4286 15.36412760 79762
SO-115
1 51080U 22002DA 23173.68445656 .00024589 00000-0 87262-3 0 9996
2 51080 97.4601 244.4300 0009849 232.2370 127.7978 15.29003151 79733
SO-114
1 51081U 22002DB 23172.42841022 .00024524 00000-0 86731-3 0 9994
2 51081 97.4593 243.1434 0009956 236.9794 123.0490 15.29116565 79549
OreSat0
1 52017U 22026K 23173.75137510 .00020980 00000-0 83348-3 0 9990
2 52017 97.5084 176.1583 0024003 68.0127 292.3658 15.25074337 70395
Planetum 1
1 52738U 22057G 23172.82198757 .00012923 00000-0 59511-3 0 9994
2 52738 97.5393 288.7797 0006099 340.1352 19.9644 15.20418995 59363
Foresail-1
1 52766U 22057AL 23173.79058341 .00010389 00000-0 49099-3 0 9990
2 52766 97.5513 290.6437 0010847 314.2185 45.8157 15.19543869 59536
SNUGLITE 2
1 52899U 22065F 23172.95018544 .00001256 00000-0 27515-3 0 9996
2 52899 98.0701 317.6593 0007688 192.5268 167.5743 14.59320365 51553
CTIM
1 52950U 22074G 23173.75824480 .00062441 00000-0 13436-2 0 9996
2 52950 44.9990 328.1508 0014960 266.2345 93.6833 15.43737059 54468
IO-117
1 53106U 22080B 23172.41016717 -.00000003 00000-0 00000-0 0 9993
2 53106 70.1617 318.2520 0008546 184.7855 175.2724 6.42556995 22026
AstroBioCubeSat
1 53107U 22080C 23025.30817895 -.00000003 00000-0 00000-0 0 9995
2 53107 70.1710 9.4734 0013545 210.3158 149.6718 6.42110537 12478
SelfieSat
1 53951U 22057BC 23173.76955217 .00018761 00000-0 81907-3 0 9998
2 53951 97.5441 290.3818 0007750 325.0739 34.9988 15.22153203 59531
FO-118
1 54684U 22167C 23173.75987653 .00011928 00000-0 65629-3 0 9993
2 54684 97.5637 311.2987 0012381 318.8964 41.1333 15.14144307 29524
KILICSAT
1 56181U 23054D 23173.76757243 .00013625 00000-0 58505-3 0 9995
2 56181 97.4038 68.5705 0010204 28.0370 332.1414 15.22765806 11026
SSS-2B
1 56184U 23054G 23173.76158881 .00014067 00000-0 60054-3 0 9994
2 56184 97.4100 68.6349 0011508 27.0582 333.1252 15.22944430 11029
CIRBE
1 56188U 23054L 23172.95710002 .00013900 00000-0 58566-3 0 9997
2 56188 97.4052 67.8344 0010281 24.8006 335.3723 15.23403556 10901
INSPIRE-Sat 7
1 56211U 23054AK 23173.67806049 .00017967 00000-0 71803-3 0 9997
2 56211 97.4077 68.7264 0014111 2.3846 357.7456 15.25086099 11021
RoseyCubesat 1
1 56212U 23054AL 23173.27655638 .00018462 00000-0 73247-3 0 9995
2 56212 97.4082 68.3526 0014472 3.0104 357.1218 15.25318071 10960
ARKSAT 1
1 56311U 98067VC 23173.76502987 .00076042 00000-0 10001-2 0 9999
2 56311 51.6386 299.0877 0002826 93.5886 266.5429 15.57790162 9237
AuroraSat
1 56312U 98067VD 23172.66332565 .00080538 00000-0 10284-2 0 9999
2 56312 51.6379 304.4764 0002203 74.3631 285.7605 15.58552927 9099
Ex-Alta 2
1 56313U 98067VE 23173.57274959 .00071244 00000-0 93859-3 0 9997
2 56313 51.6370 300.0498 0002773 90.6771 269.4539 15.57772764 9227
LightCube
1 56314U 98067VF 23173.69354369 .00086206 00000-0 11017-2 0 9994
2 56314 51.6375 299.3554 0003679 54.2213 305.9121 15.58496951 9279
NEUDOSE
1 56315U 98067VG 23173.60911268 .00052331 00000-0 74158-3 0 9991
2 56315 51.6382 300.2909 0005035 83.6286 276.5279 15.55932710 9203
YukonSat
1 56316U 98067VH 23173.72177270 .00061374 00000-0 83801-3 0 9994
2 56316 51.6378 299.5446 0004302 74.4598 285.6869 15.56871332 9248
SNIPE 4
1 56744U 23072B 23173.71621728 .00006480 00000-0 43148-3 0 9991
2 56744 97.5517 0.5102 0008218 192.1995 167.9035 15.07426877 4265
SNIPE 2
1 56745U 23072C 23173.71372943 .00006394 00000-0 42428-3 0 9998
2 56745 97.5526 0.5165 0008458 195.6306 164.4662 15.07561722 4262
/EX
1
0
The following satellite has decayed from orbit and has been removed from this week's AMSAT-NA TLE distribution:
MiTEE 1 NORAD Cat ID 47314(decayed form orbit on 12 June 2023 per Space-Track).
Joe Fitzgerald
AMSAT Orbital Elements Manager
1
0
SB KEPS @ AMSAT $ORB23167.1
2Line Orbital Elements 23167.AMSAT
QST de W1STR
AMSAT Orbital Elements for Amateur Satellites in TLE Format
From Orbital Analysis Office
New England Sci-Tech STEM Education Center
Natick, MA June 16, 2023
To all radio amateurs
Decode two line element sets with the following key:
1 AAAAAU 00 0 0 BBBBB.BBBBBBBB .CCCCCCCC 00000-0 ******** 0 DDDDZ
2 AAAAA EEE.EEEE FFF.FFFF GGGGGGG HHH.HHHH III.IIII JJ.JJJJJJJJKKKKKZ
KEY: A-CATALOGNUM B-EPOCHTIME C-DECAY *-BSTAR D-ELSETNUM E-INCLINATION
F-RAAN G-ECCENTRICITY H-ARGPERIGEE I-MNANOM J-MNMOTION K-ORBITNUM
Z-CHECKSUM
For more detail see www.amsat.org/keplerian-elements-formats/
AO-07
1 07530U 74089B 23166.52435525 -.00000037 00000-0 57488-4 0 9999
2 07530 101.9465 153.1900 0012656 67.4426 54.3177 12.53664824222960
UO-11
1 14781U 84021B 23166.50780480 .00001458 00000-0 17732-3 0 9997
2 14781 97.6570 143.5032 0007528 196.7392 163.3576 14.84900687 93891
AO-16
1 20439U 90005D 23166.57562184 .00000181 00000-0 82846-4 0 9990
2 20439 98.8826 156.7649 0010247 202.9185 270.1660 14.33109661744674
LO-19
1 20442U 90005G 23166.49546549 .00000169 00000-0 78109-4 0 9995
2 20442 98.8434 142.9748 0011670 178.1932 181.9295 14.33263469745104
HUBBLE
1 20580U 90037B 23166.62268743 .00003820 00000-0 19897-3 0 9990
2 20580 28.4696 278.4171 0002553 11.9722 107.5828 15.13266332621225
MET-2/21
1 22782U 93055A 23166.32085733 .00000022 00000-0 66506-5 0 9994
2 22782 82.5496 86.2475 0023486 51.3753 62.3586 13.83886580504195
AO-27
1 22825U 93061C 23166.59908083 .00000136 00000-0 69993-4 0 9998
2 22825 98.8406 209.4641 0009534 75.2593 284.9645 14.30309253550068
IO-26
1 22826U 93061D 23166.60291044 .00000156 00000-0 77187-4 0 9999
2 22826 98.8353 209.3312 0009953 62.4562 297.7630 14.30670462550332
FO-29
1 24278U 96046B 23166.49009742 .00000031 00000-0 64484-4 0 9995
2 24278 98.5280 145.2758 0351253 61.3836 302.2165 13.53146443324704
